Year,Month,Day,Hour,Minute,Value (Times are PST for temperature in C)
2015,02,17,10,16,7.20
2015,02,17,10,17,7.20
2015,02,17,10,18,7.30
2015,02,17,10,19,7.30
2015,02,17,10,20,7.40
2015,02,17,10,21,7.50
2015,02,17,10,22,7.50
2015,02,17,10,23,7.60
2015,02,17,10,24,7.70
2015,02,17,10,25,7.80
2015,02,17,10,26,7.90
2015,02,17,10,27,8.00
2015,02,17,10,28,8.10
2015,02,17,10,29,8.20
2015,02,17,10,30,8.30
2015,02,17,10,31,8.40
2015,02,17,10,32,8.50
2015,02,17,10,33,8.60
2015,02,17,10,34,8.70
2015,02,17,10,35,8.80
2015,02,17,10,36,8.80
2015,02,17,10,37,8.90
2015,02,17,10,38,9.00
2015,02,17,10,39,9.00
2015,02,17,10,40,9.10
2015,02,17,10,41,9.10
2015,02,17,10,42,9.20
2015,02,17,10,43,9.30
2015,02,17,10,44,9.30
2015,02,17,10,45,9.40
2015,02,17,10,46,9.40
2015,02,17,10,47,9.50
2015,02,17,10,48,9.60
2015,02,17,10,49,9.60
2015,02,17,10,50,9.60
2015,02,17,10,51,9.70
2015,02,17,10,52,9.70
2015,02,17,10,53,9.80
2015,02,17,10,54,9.80
2015,02,17,10,55,9.90
2015,02,17,10,56,9.90
2015,02,17,10,57,10.00
2015,02,17,10,58,10.00
2015,02,17,10,59,10.00
2015,02,17,11,00,10.10
2015,02,17,11,01,10.10
2015,02,17,11,02,10.10
2015,02,17,11,03,10.10
2015,02,17,11,04,10.20
2015,02,17,11,05,10.20
2015,02,17,11,06,10.20
2015,02,17,11,07,10.20
2015,02,17,11,08,10.20
2015,02,17,11,09,10.30
2015,02,17,11,10,10.30
2015,02,17,11,11,10.30
2015,02,17,11,12,10.30
2015,02,17,11,13,10.40
2015,02,17,11,14,10.40
2015,02,17,11,15,10.40
2015,02,17,11,16,10.40
2015,02,17,11,17,10.50
2015,02,17,11,18,10.60
2015,02,17,11,19,10.60
2015,02,17,11,20,10.70
2015,02,17,11,21,10.70
2015,02,17,11,22,10.80
2015,02,17,11,23,10.80
2015,02,17,11,24,10.90
2015,02,17,11,25,10.90
2015,02,17,11,26,10.90
2015,02,17,11,27,11.00
2015,02,17,11,28,11.00
2015,02,17,11,29,11.10
2015,02,17,11,30,11.10
2015,02,17,11,31,11.10
2015,02,17,11,32,11.00
2015,02,17,11,33,11.10
2015,02,17,11,34,11.10
2015,02,17,11,35,11.10
2015,02,17,11,36,11.10
2015,02,17,11,37,11.10
2015,02,17,11,38,11.10
2015,02,17,11,39,11.10
2015,02,17,11,40,11.10
2015,02,17,11,41,11.20
2015,02,17,11,42,11.20
2015,02,17,11,43,11.20
2015,02,17,11,44,11.20
2015,02,17,11,45,11.20
2015,02,17,11,46,11.30
2015,02,17,11,47,11.30
2015,02,17,11,48,11.30
2015,02,17,11,49,11.30
2015,02,17,11,50,11.30
2015,02,17,11,51,11.40
2015,02,17,11,52,11.40
2015,02,17,11,53,11.50
2015,02,17,11,54,11.50
2015,02,17,11,55,11.60
2015,02,17,11,56,11.60
2015,02,17,11,57,11.70
2015,02,17,11,58,11.70
2015,02,17,11,59,11.80
2015,02,17,12,00,11.80
2015,02,17,12,01,11.80
2015,02,17,12,02,11.90
2015,02,17,12,03,11.90
2015,02,17,12,04,12.00
2015,02,17,12,05,12.00
2015,02,17,12,06,12.10
2015,02,17,12,07,12.10
2015,02,17,12,08,12.20
2015,02,17,12,09,12.20
2015,02,17,12,10,12.20
2015,02,17,12,11,12.20
2015,02,17,12,12,12.10
2015,02,17,12,13,12.10
2015,02,17,12,14,12.10
2015,02,17,12,15,12.10
2015,02,17,12,16,12.10
2015,02,17,12,17,12.10
2015,02,17,12,18,12.10
2015,02,17,12,19,12.00
2015,02,17,12,20,12.00
2015,02,17,12,21,11.90
2015,02,17,12,22,11.90
2015,02,17,12,23,11.90
2015,02,17,12,24,11.90
2015,02,17,12,25,11.90
2015,02,17,12,26,11.90
2015,02,17,12,27,11.90
2015,02,17,12,28,11.90
2015,02,17,12,29,11.90
2015,02,17,12,30,11.90
2015,02,17,12,31,11.90
2015,02,17,12,32,12.00
2015,02,17,12,33,12.00
2015,02,17,12,34,12.00
2015,02,17,12,35,12.10
2015,02,17,12,36,12.10
2015,02,17,12,37,12.20
2015,02,17,12,38,12.20
2015,02,17,12,39,12.20
2015,02,17,12,40,12.20
2015,02,17,12,41,12.20
2015,02,17,12,42,12.20
2015,02,17,12,43,12.30
2015,02,17,12,44,12.30
2015,02,17,12,45,12.30
2015,02,17,12,46,12.30
2015,02,17,12,47,12.30
2015,02,17,12,48,12.30
2015,02,17,12,49,12.30
2015,02,17,12,50,12.40
2015,02,17,12,51,12.40
2015,02,17,12,52,12.40
2015,02,17,12,53,12.50
2015,02,17,12,54,12.60
2015,02,17,12,55,12.60
2015,02,17,12,56,12.60
2015,02,17,12,57,12.60
2015,02,17,12,58,12.60
2015,02,17,12,59,12.70
2015,02,17,13,00,12.70
2015,02,17,13,01,12.70
2015,02,17,13,02,12.70
2015,02,17,13,03,12.70
2015,02,17,13,04,12.80
2015,02,17,13,05,12.80
2015,02,17,13,06,12.80
2015,02,17,13,07,12.80
2015,02,17,13,08,12.90
2015,02,17,13,09,12.90
2015,02,17,13,10,12.90
2015,02,17,13,11,12.90
2015,02,17,13,12,13.00
2015,02,17,13,13,13.00
2015,02,17,13,14,13.00
2015,02,17,13,15,13.00
2015,02,17,13,16,13.00
2015,02,17,13,17,12.90
2015,02,17,13,18,12.90
2015,02,17,13,19,12.90
2015,02,17,13,20,12.90
2015,02,17,13,21,12.90
2015,02,17,13,22,12.90
2015,02,17,13,23,12.90
2015,02,17,13,24,12.90
2015,02,17,13,25,12.90
2015,02,17,13,26,12.80
2015,02,17,13,27,12.80
2015,02,17,13,28,12.80
2015,02,17,13,29,12.80
2015,02,17,13,30,12.80
2015,02,17,13,31,12.80
2015,02,17,13,32,12.80
2015,02,17,13,33,12.80
2015,02,17,13,34,12.80
2015,02,17,13,35,12.80
2015,02,17,13,36,12.80
2015,02,17,13,37,12.80
2015,02,17,13,38,12.80
2015,02,17,13,39,12.80
2015,02,17,13,40,12.90
2015,02,17,13,41,12.90
2015,02,17,13,42,12.90
2015,02,17,13,43,12.90
2015,02,17,13,44,12.90
2015,02,17,13,45,12.90
2015,02,17,13,46,13.00
2015,02,17,13,47,13.00
2015,02,17,13,48,13.00
2015,02,17,13,49,13.00
2015,02,17,13,50,13.10
2015,02,17,13,51,13.10
2015,02,17,13,52,13.10
2015,02,17,13,53,13.10
2015,02,17,13,54,13.10
2015,02,17,13,55,13.10
2015,02,17,13,56,13.10
2015,02,17,13,57,13.10
2015,02,17,13,58,13.10
2015,02,17,13,59,13.10
2015,02,17,14,00,13.10
2015,02,17,14,01,13.10
2015,02,17,14,02,13.20
2015,02,17,14,03,13.20
2015,02,17,14,04,13.20
2015,02,17,14,05,13.20
2015,02,17,14,06,13.20
2015,02,17,14,07,13.20
2015,02,17,14,08,13.20
2015,02,17,14,09,13.20
2015,02,17,14,10,13.20
2015,02,17,14,11,13.20
2015,02,17,14,12,13.20
2015,02,17,14,13,13.20
2015,02,17,14,14,13.20
2015,02,17,14,15,13.20
2015,02,17,14,16,13.20
2015,02,17,14,17,13.20
2015,02,17,14,18,13.20
2015,02,17,14,19,13.20
2015,02,17,14,20,13.10
2015,02,17,14,21,13.10
2015,02,17,14,22,13.10
2015,02,17,14,23,13.20
2015,02,17,14,24,13.20
2015,02,17,14,25,13.20
2015,02,17,14,26,13.20
2015,02,17,14,27,13.20
2015,02,17,14,28,13.20
2015,02,17,14,29,13.20
2015,02,17,14,30,13.20
2015,02,17,14,31,13.20
2015,02,17,14,32,13.20
2015,02,17,14,33,13.20
2015,02,17,14,34,13.20
2015,02,17,14,35,13.30
2015,02,17,14,36,13.30
2015,02,17,14,37,13.30
2015,02,17,14,38,13.30
2015,02,17,14,39,13.30
2015,02,17,14,40,13.30
2015,02,17,14,41,13.30
2015,02,17,14,42,13.30
2015,02,17,14,43,13.30
2015,02,17,14,44,13.40
2015,02,17,14,45,13.40
2015,02,17,14,46,13.40
2015,02,17,14,47,13.40
2015,02,17,14,48,13.40
2015,02,17,14,49,13.40
2015,02,17,14,50,13.40
2015,02,17,14,51,13.40
2015,02,17,14,52,13.50
2015,02,17,14,53,13.50
2015,02,17,14,54,13.50
2015,02,17,14,55,13.60
2015,02,17,14,56,13.60
2015,02,17,14,57,13.70
2015,02,17,14,58,13.70
2015,02,17,14,59,13.70
2015,02,17,15,00,13.80
2015,02,17,15,01,13.80
2015,02,17,15,02,13.80
2015,02,17,15,03,13.80
2015,02,17,15,04,13.90
2015,02,17,15,05,13.90
2015,02,17,15,06,13.90
2015,02,17,15,07,14.00
2015,02,17,15,08,14.00
2015,02,17,15,09,14.00
2015,02,17,15,10,14.00
2015,02,17,15,11,14.00
2015,02,17,15,12,14.10
2015,02,17,15,13,14.00
2015,02,17,15,14,14.00
2015,02,17,15,15,14.00
2015,02,17,15,16,14.00
2015,02,17,15,17,14.00
2015,02,17,15,18,14.00
2015,02,17,15,19,13.90
2015,02,17,15,20,13.90
2015,02,17,15,21,13.90
2015,02,17,15,22,13.90
2015,02,17,15,23,13.90
2015,02,17,15,24,13.90
2015,02,17,15,25,13.90
2015,02,17,15,26,13.90
2015,02,17,15,27,13.80
2015,02,17,15,28,13.80
2015,02,17,15,29,13.80
2015,02,17,15,30,13.80
2015,02,17,15,31,13.80
2015,02,17,15,32,13.80
2015,02,17,15,33,13.80
2015,02,17,15,34,13.80
2015,02,17,15,35,13.80
2015,02,17,15,36,13.80
2015,02,17,15,37,13.70
2015,02,17,15,38,13.70
2015,02,17,15,39,13.70
2015,02,17,15,40,13.70
2015,02,17,15,41,13.80
2015,02,17,15,42,13.80
2015,02,17,15,43,13.70
2015,02,17,15,44,13.70
2015,02,17,15,45,13.70
2015,02,17,15,46,13.70
2015,02,17,15,47,13.70
2015,02,17,15,48,13.70
2015,02,17,15,49,13.70
2015,02,17,15,50,13.60
2015,02,17,15,51,13.60
2015,02,17,15,52,13.60
2015,02,17,15,53,13.60
2015,02,17,15,54,13.50
2015,02,17,15,55,13.50
2015,02,17,15,56,13.40
2015,02,17,15,57,13.40
2015,02,17,15,58,13.30
2015,02,17,15,59,13.30
2015,02,17,16,00,13.30
2015,02,17,16,01,13.20
2015,02,17,16,02,13.20
2015,02,17,16,03,13.20
2015,02,17,16,04,13.20
2015,02,17,16,05,13.20
2015,02,17,16,06,13.10
2015,02,17,16,07,13.10
2015,02,17,16,08,13.10
2015,02,17,16,09,13.10
2015,02,17,16,10,13.10
2015,02,17,16,11,13.00
2015,02,17,16,12,13.00
2015,02,17,16,13,13.00
2015,02,17,16,14,13.00
2015,02,17,16,15,13.00
2015,02,17,16,16,13.00
2015,02,17,16,17,13.00
2015,02,17,16,18,12.90
2015,02,17,16,19,12.90
2015,02,17,16,20,13.00
2015,02,17,16,21,13.00
2015,02,17,16,22,13.00
2015,02,17,16,23,13.00
2015,02,17,16,24,13.00
2015,02,17,16,25,13.00
2015,02,17,16,26,13.10
2015,02,17,16,27,13.10
2015,02,17,16,28,13.10
2015,02,17,16,29,13.20
2015,02,17,16,30,13.20
2015,02,17,16,31,13.20
2015,02,17,16,32,13.20
2015,02,17,16,33,13.20
2015,02,17,16,34,13.20
2015,02,17,16,35,13.30
2015,02,17,16,36,13.30
2015,02,17,16,37,13.30
2015,02,17,16,38,13.20
2015,02,17,16,39,13.20
2015,02,17,16,40,13.20
2015,02,17,16,41,13.10
2015,02,17,16,42,13.10
2015,02,17,16,43,13.00
2015,02,17,16,44,12.90
2015,02,17,16,45,12.90
2015,02,17,16,46,12.80
2015,02,17,16,47,12.80
2015,02,17,16,48,12.70
2015,02,17,16,49,12.70
2015,02,17,16,50,12.60
2015,02,17,16,51,12.50
2015,02,17,16,52,12.50
2015,02,17,16,53,12.40
2015,02,17,16,54,12.40
2015,02,17,16,55,12.30
2015,02,17,16,56,12.30
2015,02,17,16,57,12.20
2015,02,17,16,58,12.20
2015,02,17,16,59,12.10
2015,02,17,17,00,12.10
2015,02,17,17,01,12.00
2015,02,17,17,02,11.90
2015,02,17,17,03,11.90
2015,02,17,17,04,11.80
2015,02,17,17,05,11.80
2015,02,17,17,06,11.80
2015,02,17,17,07,11.70
2015,02,17,17,08,11.70
2015,02,17,17,09,11.70
2015,02,17,17,10,11.60
2015,02,17,17,11,11.60
2015,02,17,17,12,11.50
2015,02,17,17,13,11.50
2015,02,17,17,14,11.40
2015,02,17,17,15,11.30
2015,02,17,17,16,11.30
2015,02,17,17,17,11.30
2015,02,17,17,18,11.30
2015,02,17,17,19,11.30
2015,02,17,17,20,11.30
2015,02,17,17,21,11.30
2015,02,17,17,22,11.30
2015,02,17,17,23,11.30
2015,02,17,17,24,11.30
2015,02,17,17,25,11.30
2015,02,17,17,26,11.30
